Regional Weather Roundup
Issued by NWS

Home | Current Version | Previous Version | Text Only | Print | Product List | Glossary Off
Versions: 1 2 3 4 5 6 7 8 9 10 11 12 13 14 15 16 17 18 19 20 21 22 23 24 25 26 27 28 29 30 31 32 33 34 35 36 37 38 39 40 41 42 43 44 45 46 47 48 49 50

000
ASUS43 KLMK 111802
RWRKY
KENTUCKY REGIONAL WEATHER ROUNDUP
NATIONAL WEATHER SERVICE LOUISVILLE KY
100 PM EST THU FEB 11 2016

NOTE "FAIR" INDICATES FEW OR NO CLOUDS BELOW 12,000 FEET
WITH NO SIGNIFICANT WEATHER AND/OR OBSTRUCTIONS TO VISIBILITY.

KYZ001>023-026-027-061>063-070>075-111900-
WESTERN AND SOUTH CENTRAL KENTUCKY

CITY           SKY/WX    TMP DP  RH WIND       PRES   REMARKS
PADUCAH        MOSUNNY   34  24  67 NE10      30.28F WCI  26
HENDERSON      CLOUDY    27  14  59 N6        30.33S WCI  20
OWENSBORO      CLOUDY    28  15  58 N7        30.32F WCI  21
HOPKINSVILLE   SUNNY     33  24  67 N8        30.26F WCI  27
BOWLING GREEN  SUNNY     34  21  59 NE8       30.28F WCI  27
GLASGOW        NOT AVBL
$$

KYZ024-025-028>034-038-045-046-053-111900-
NORTH CENTRAL KENTUCKY

CITY           SKY/WX    TMP DP  RH WIND       PRES   REMARKS
LOUISVILLE/SDF MOSUNNY   29   9  43 NW7       30.29F WCI  22
LOUISVILLE/LOU SUNNY     27   9  46 VRB3      30.30F
FORT KNOX      SUNNY     27   9  46 VRB2      30.26F
$$

KYZ035>037-039>044-047>052-055>060-089>105-111900-
NORTHEAST KENTUCKY

CITY           SKY/WX    TMP DP  RH WIND       PRES   REMARKS
LEXINGTON      MOSUNNY   24  11  57 N5        30.26F WCI  18
COVINGTON      MOSUNNY   21   4  47 CALM      30.27F
FRANKFORT      SUNNY     26   7  44 NW5       30.26F WCI  20
$$

KYZ054-064>069-076>088-106>120-111900-
SOUTHEAST KENTUCKY

CITY           SKY/WX    TMP DP  RH WIND       PRES   REMARKS
JACKSON        SUNNY     25   9  50 NW8       30.22F WCI  16
LONDON         SUNNY     26  13  57 CALM      30.23F
SOMERSET       NOT AVBL
MIDDLESBORO    CLOUDY    32  18  55 S3        30.21F
MONTICELLO     CLOUDY    32  20  61 N8        30.26F WCI  25
$$




USA.gov is the U.S. government's official web portal to all federal, state and local government web resources and services.